Time,TemperatureF,DewpointF,PressureIn,WindDirection,WindDirectionDegrees,WindSpeedMPH,WindSpeedGustMPH,Humidity,HourlyPrecipIn,Conditions,Clouds,dailyrainin,SoftwareType,DateUTC
2013-03-12 00:02:00,29.4,22.2,30.04,SE,125,0.0,1.0,74,0.00,,,0.00,WUHU216DAVISVP2,2013-03-12 05:02:00,
2013-03-12 00:07:00,29.1,22.2,30.05,SE,125,0.0,0.0,75,0.00,,,0.00,WUHU216DAVISVP2,2013-03-12 05:07:00,
2013-03-12 00:12:00,29.0,22.4,30.05,SE,125,0.0,0.0,76,0.00,,,0.00,WUHU216DAVISVP2,2013-03-12 05:12:00,
2013-03-12 00:17:00,28.9,22.3,30.05,SE,125,0.0,0.0,76,0.00,,,0.00,WUHU216DAVISVP2,2013-03-12 05:17:00,
2013-03-12 00:22:00,28.8,22.5,30.06,SE,125,0.0,0.0,77,0.00,,,0.00,WUHU216DAVISVP2,2013-03-12 05:22:00,
2013-03-12 00:27:00,28.7,22.4,30.06,SE,125,0.0,0.0,77,0.00,,,0.00,WUHU216DAVISVP2,2013-03-12 05:27:00,
2013-03-12 00:32:00,28.6,22.3,30.06,SE,125,0.0,0.0,77,0.00,,,0.00,WUHU216DAVISVP2,2013-03-12 05:32:00,
2013-03-12 00:37:00,28.6,22.0,30.06,SE,125,0.0,0.0,76,0.00,,,0.00,WUHU216DAVISVP2,2013-03-12 05:37:00,
2013-03-12 00:42:00,28.6,22.3,30.06,SE,125,0.0,0.0,77,0.00,,,0.00,WUHU216DAVISVP2,2013-03-12 05:42:00,
2013-03-12 00:47:00,28.5,22.2,30.06,SE,125,0.0,0.0,77,0.00,,,0.00,WUHU216DAVISVP2,2013-03-12 05:47:00,
2013-03-12 00:52:00,28.3,22.3,30.07,SE,125,0.0,1.0,78,0.00,,,0.00,WUHU216DAVISVP2,2013-03-12 05:52:00,
2013-03-12 00:57:00,28.2,22.2,30.06,SE,125,0.0,1.0,78,0.00,,,0.00,WUHU216DAVISVP2,2013-03-12 05:57:00,
2013-03-12 01:02:00,28.0,22.0,30.06,SE,125,0.0,1.0,78,0.00,,,0.00,WUHU216DAVISVP2,2013-03-12 06:02:00,
2013-03-12 01:07:00,27.8,22.1,30.07,SE,125,0.0,1.0,79,0.00,,,0.00,WUHU216DAVISVP2,2013-03-12 06:07:00,
2013-03-12 01:12:00,27.6,22.0,30.07,SE,125,0.0,0.0,79,0.00,,,0.00,WUHU216DAVISVP2,2013-03-12 06:12:00,
2013-03-12 01:17:00,27.6,22.0,30.07,SE,125,0.0,0.0,79,0.00,,,0.00,WUHU216DAVISVP2,2013-03-12 06:17:00,
2013-03-12 01:22:00,27.6,22.0,30.07,SE,125,0.0,0.0,79,0.00,,,0.00,WUHU216DAVISVP2,2013-03-12 06:22:00,
2013-03-12 01:27:00,27.8,22.2,30.07,SE,125,0.0,0.0,79,0.00,,,0.00,WUHU216DAVISVP2,2013-03-12 06:27:00,
2013-03-12 01:32:00,27.9,22.0,30.07,SE,125,0.0,0.0,78,0.00,,,0.00,WUHU216DAVISVP2,2013-03-12 06:32:00,
2013-03-12 01:37:00,27.8,21.9,30.07,SE,125,0.0,0.0,78,0.00,,,0.00,WUHU216DAVISVP2,2013-03-12 06:37:00,
2013-03-12 01:42:00,27.6,21.7,30.07,SE,125,0.0,0.0,78,0.00,,,0.00,WUHU216DAVISVP2,2013-03-12 06:42:00,
2013-03-12 01:47:00,27.5,21.6,30.07,SE,125,0.0,0.0,78,0.00,,,0.00,WUHU216DAVISVP2,2013-03-12 06:47:00,
2013-03-12 01:52:00,27.4,21.8,30.06,SE,125,0.0,0.0,79,0.00,,,0.00,WUHU216DAVISVP2,2013-03-12 06:52:00,
2013-03-12 01:57:00,27.4,21.8,30.06,SE,125,0.0,0.0,79,0.00,,,0.00,WUHU216DAVISVP2,2013-03-12 06:57:00,
2013-03-12 02:03:00,27.5,21.8,30.06,SE,125,0.0,0.0,79,0.00,,,0.00,WUHU216DAVISVP2,2013-03-12 07:03:00,
2013-03-12 02:08:00,27.5,21.8,30.06,SE,125,0.0,0.0,79,0.00,,,0.00,WUHU216DAVISVP2,2013-03-12 07:08:00,
2013-03-12 02:13:00,27.4,22.0,30.06,SE,125,0.0,0.0,80,0.00,,,0.00,WUHU216DAVISVP2,2013-03-12 07:13:00,
2013-03-12 02:18:00,27.4,21.7,30.06,SE,125,0.0,0.0,79,0.00,,,0.00,WUHU216DAVISVP2,2013-03-12 07:18:00,
2013-03-12 02:23:00,27.4,21.8,30.07,SE,125,0.0,0.0,79,0.00,,,0.00,WUHU216DAVISVP2,2013-03-12 07:23:00,
2013-03-12 02:28:00,27.3,21.7,30.07,SE,125,0.0,0.0,79,0.00,,,0.00,WUHU216DAVISVP2,2013-03-12 07:28:00,
2013-03-12 02:33:00,27.1,21.8,30.07,SE,125,0.0,0.0,80,0.00,,,0.00,WUHU216DAVISVP2,2013-03-12 07:33:00,
2013-03-12 02:38:00,27.3,22.0,30.08,SE,125,0.0,0.0,80,0.00,,,0.00,WUHU216DAVISVP2,2013-03-12 07:38:00,
2013-03-12 02:43:00,27.5,22.2,30.08,SE,125,0.0,0.0,80,0.00,,,0.00,WUHU216DAVISVP2,2013-03-12 07:43:00,
2013-03-12 02:48:00,27.5,21.8,30.09,SE,125,0.0,0.0,79,0.00,,,0.00,WUHU216DAVISVP2,2013-03-12 07:48:00,
2013-03-12 02:53:00,27.2,21.8,30.09,SE,125,0.0,0.0,80,0.00,,,0.00,WUHU216DAVISVP2,2013-03-12 07:53:00,
2013-03-12 02:58:00,26.8,21.5,30.09,SE,125,0.0,0.0,80,0.00,,,0.00,WUHU216DAVISVP2,2013-03-12 07:58:00,
2013-03-12 03:03:00,26.3,21.3,30.09,SE,125,3.0,3.0,81,0.00,,,0.00,WUHU216DAVISVP2,2013-03-12 08:03:00,
2013-03-12 03:08:00,26.1,21.4,30.09,SE,125,2.0,4.0,82,0.00,,,0.00,WUHU216DAVISVP2,2013-03-12 08:08:00,
2013-03-12 03:13:00,26.1,21.7,30.09,SE,125,1.0,4.0,83,0.00,,,0.00,WUHU216DAVISVP2,2013-03-12 08:13:00,
2013-03-12 03:18:00,26.3,21.8,30.10,SE,125,1.0,4.0,83,0.00,,,0.00,WUHU216DAVISVP2,2013-03-12 08:18:00,
2013-03-12 03:23:00,26.4,21.9,30.10,SE,125,1.0,4.0,83,0.00,,,0.00,WUHU216DAVISVP2,2013-03-12 08:23:00,
2013-03-12 03:28:00,26.8,22.0,30.10,SE,125,2.0,3.0,82,0.00,,,0.00,WUHU216DAVISVP2,2013-03-12 08:28:00,
2013-03-12 03:33:00,27.1,22.1,30.10,SE,125,1.0,3.0,81,0.00,,,0.00,WUHU216DAVISVP2,2013-03-12 08:33:00,
2013-03-12 03:38:00,27.1,22.1,30.09,SE,125,0.0,3.0,81,0.00,,,0.00,WUHU216DAVISVP2,2013-03-12 08:38:00,
2013-03-12 03:43:00,27.1,22.0,30.09,SE,125,0.0,3.0,81,0.00,,,0.00,WUHU216DAVISVP2,2013-03-12 08:43:00,
2013-03-12 03:48:00,27.2,22.1,30.10,SE,125,0.0,3.0,81,0.00,,,0.00,WUHU216DAVISVP2,2013-03-12 08:48:00,
2013-03-12 03:53:00,27.3,22.0,30.09,SE,125,0.0,1.0,80,0.00,,,0.00,WUHU216DAVISVP2,2013-03-12 08:53:00,
2013-03-12 03:58:00,27.8,22.2,30.09,SE,125,0.0,1.0,79,0.00,,,0.00,WUHU216DAVISVP2,2013-03-12 08:58:00,
2013-03-12 04:03:00,28.1,22.1,30.08,SE,125,0.0,1.0,78,0.00,,,0.00,WUHU216DAVISVP2,2013-03-12 09:03:00,
2013-03-12 04:08:00,28.2,21.9,30.08,SE,125,0.0,1.0,77,0.00,,,0.00,WUHU216DAVISVP2,2013-03-12 09:08:00,
2013-03-12 04:13:00,28.2,22.2,30.08,SE,125,0.0,1.0,78,0.00,,,0.00,WUHU216DAVISVP2,2013-03-12 09:13:00,
2013-03-12 04:18:00,28.0,22.1,30.08,SE,125,0.0,1.0,78,0.00,,,0.00,WUHU216DAVISVP2,2013-03-12 09:18:00,
2013-03-12 04:23:00,28.0,22.3,30.08,SE,125,0.0,1.0,79,0.00,,,0.00,WUHU216DAVISVP2,2013-03-12 09:23:00,
2013-03-12 04:28:00,27.9,22.2,30.08,SE,125,0.0,0.0,79,0.00,,,0.00,WUHU216DAVISVP2,2013-03-12 09:28:00,
2013-03-12 04:33:00,28.0,21.7,30.08,SE,125,2.0,3.0,77,0.00,,,0.00,WUHU216DAVISVP2,2013-03-12 09:33:00,
2013-03-12 04:38:00,28.8,21.6,30.08,SE,126,3.0,4.0,74,0.00,,,0.00,WUHU216DAVISVP2,2013-03-12 09:38:00,
2013-03-12 04:43:00,30.0,21.8,30.08,SE,138,2.0,5.0,71,0.00,,,0.00,WUHU216DAVISVP2,2013-03-12 09:43:00,
2013-03-12 04:48:00,30.6,22.0,30.08,SE,139,1.0,5.0,70,0.00,,,0.00,WUHU216DAVISVP2,2013-03-12 09:48:00,
2013-03-12 04:53:00,30.8,22.2,30.08,SE,139,2.0,5.0,70,0.00,,,0.00,WUHU216DAVISVP2,2013-03-12 09:53:00,
2013-03-12 04:58:00,30.7,22.2,30.08,SSE,168,0.0,5.0,70,0.00,,,0.00,WUHU216DAVISVP2,2013-03-12 09:58:00,
2013-03-12 05:03:00,30.9,22.0,30.08,SSE,168,2.0,4.0,69,0.00,,,0.00,WUHU216DAVISVP2,2013-03-12 10:03:00,
2013-03-12 05:08:00,30.9,22.0,30.08,SSE,168,1.0,4.0,69,0.00,,,0.00,WUHU216DAVISVP2,2013-03-12 10:08:00,
2013-03-12 05:13:00,31.0,22.1,30.09,SSE,168,0.0,4.0,69,0.00,,,0.00,WUHU216DAVISVP2,2013-03-12 10:13:00,
2013-03-12 05:18:00,31.2,22.2,30.09,SSE,168,0.0,3.0,69,0.00,,,0.00,WUHU216DAVISVP2,2013-03-12 10:18:00,
2013-03-12 05:23:00,31.2,22.6,30.09,SSE,168,1.0,2.0,70,0.00,,,0.00,WUHU216DAVISVP2,2013-03-12 10:23:00,
2013-03-12 05:28:00,31.1,22.9,30.09,SSE,168,0.0,2.0,71,0.00,,,0.00,WUHU216DAVISVP2,2013-03-12 10:28:00,
2013-03-12 05:33:00,31.1,22.5,30.10,SSE,168,1.0,3.0,70,0.00,,,0.00,WUHU216DAVISVP2,2013-03-12 10:33:00,
2013-03-12 05:38:00,31.4,22.1,30.10,SSE,168,2.0,4.0,68,0.00,,,0.00,WUHU216DAVISVP2,2013-03-12 10:38:00,
2013-03-12 05:43:00,31.8,22.2,30.10,SSE,167,1.0,4.0,67,0.00,,,0.00,WUHU216DAVISVP2,2013-03-12 10:43:00,
2013-03-12 05:48:00,32.1,22.0,30.11,SSE,167,1.0,4.0,66,0.00,,,0.00,WUHU216DAVISVP2,2013-03-12 10:48:00,
2013-03-12 05:53:00,32.3,22.3,30.12,SE,146,3.0,5.0,66,0.00,,,0.00,WUHU216DAVISVP2,2013-03-12 10:53:00,
2013-03-12 05:58:00,32.5,22.1,30.12,SE,141,1.0,5.0,65,0.00,,,0.00,WUHU216DAVISVP2,2013-03-12 10:58:00,
2013-03-12 06:03:00,32.7,22.6,30.12,SE,141,2.0,5.0,66,0.00,,,0.00,WUHU216DAVISVP2,2013-03-12 11:03:00,
2013-03-12 06:08:00,32.8,22.0,30.13,SE,141,1.0,5.0,64,0.00,,,0.00,WUHU216DAVISVP2,2013-03-12 11:08:00,
2013-03-12 06:13:00,32.9,22.5,30.13,SE,141,2.0,4.0,65,0.00,,,0.00,WUHU216DAVISVP2,2013-03-12 11:13:00,
2013-03-12 06:18:00,32.9,22.4,30.13,SE,141,1.0,4.0,65,0.00,,,0.00,WUHU216DAVISVP2,2013-03-12 11:18:00,
2013-03-12 06:23:00,32.9,22.5,30.13,SE,141,1.0,4.0,65,0.00,,,0.00,WUHU216DAVISVP2,2013-03-12 11:23:00,
2013-03-12 06:28:00,32.8,22.4,30.13,SE,141,0.0,3.0,65,0.00,,,0.00,WUHU216DAVISVP2,2013-03-12 11:28:00,
2013-03-12 06:33:00,32.8,22.4,30.13,SE,141,0.0,2.0,65,0.00,,,0.00,WUHU216DAVISVP2,2013-03-12 11:33:00,
2013-03-12 06:38:00,32.8,22.4,30.13,SE,141,1.0,2.0,65,0.00,,,0.00,WUHU216DAVISVP2,2013-03-12 11:38:00,
2013-03-12 06:43:00,32.8,22.4,30.14,SE,141,1.0,2.0,65,0.00,,,0.00,WUHU216DAVISVP2,2013-03-12 11:43:00,
2013-03-12 06:48:00,32.9,22.8,30.13,SE,141,0.0,2.0,66,0.00,,,0.00,WUHU216DAVISVP2,2013-03-12 11:48:00,
2013-03-12 06:53:00,32.8,23.1,30.13,SE,141,0.0,2.0,67,0.00,,,0.00,WUHU216DAVISVP2,2013-03-12 11:53:00,
2013-03-12 06:58:00,32.7,22.7,30.14,SE,141,0.0,2.0,66,0.00,,,0.00,WUHU216DAVISVP2,2013-03-12 11:58:00,
2013-03-12 07:03:00,32.7,23.3,30.15,SE,141,0.0,1.0,68,0.00,,,0.00,WUHU216DAVISVP2,2013-03-12 12:03:00,
2013-03-12 07:08:00,32.6,22.9,30.15,SE,141,0.0,0.0,67,0.00,,,0.00,WUHU216DAVISVP2,2013-03-12 12:08:00,
2013-03-12 07:13:00,32.7,23.3,30.15,SE,141,0.0,1.0,68,0.00,,,0.00,WUHU216DAVISVP2,2013-03-12 12:13:00,
2013-03-12 07:18:00,32.7,23.4,30.15,SE,141,0.0,1.0,68,0.00,,,0.00,WUHU216DAVISVP2,2013-03-12 12:18:00,
2013-03-12 07:23:00,32.5,23.2,30.14,SE,141,0.0,1.0,68,0.00,,,0.00,WUHU216DAVISVP2,2013-03-12 12:23:00,
2013-03-12 07:28:00,32.4,23.4,30.15,SE,141,0.0,1.0,69,0.00,,,0.00,WUHU216DAVISVP2,2013-03-12 12:28:00,
2013-03-12 07:33:00,32.2,23.2,30.15,SE,141,0.0,0.0,69,0.00,,,0.00,WUHU216DAVISVP2,2013-03-12 12:33:00,
2013-03-12 07:38:00,32.1,23.5,30.15,SE,141,0.0,0.0,70,0.00,,,0.00,WUHU216DAVISVP2,2013-03-12 12:38:00,
2013-03-12 07:43:00,32.0,23.4,30.15,SE,141,0.0,0.0,70,0.00,,,0.00,WUHU216DAVISVP2,2013-03-12 12:43:00,
2013-03-12 07:48:00,32.0,23.7,30.15,SE,141,0.0,0.0,71,0.00,,,0.00,WUHU216DAVISVP2,2013-03-12 12:48:00,
2013-03-12 07:53:00,32.1,23.4,30.16,SE,141,2.0,2.0,70,0.00,,,0.00,WUHU216DAVISVP2,2013-03-12 12:53:00,
2013-03-12 07:58:00,32.3,23.3,30.16,SE,141,0.0,2.0,69,0.00,,,0.00,WUHU216DAVISVP2,2013-03-12 12:58:00,
2013-03-12 08:03:00,32.4,23.4,30.16,SE,141,0.0,2.0,69,0.00,,,0.00,WUHU216DAVISVP2,2013-03-12 13:03:00,
2013-03-12 08:08:00,32.3,23.0,30.16,SE,141,0.0,2.0,68,0.00,,,0.00,WUHU216DAVISVP2,2013-03-12 13:08:00,
2013-03-12 08:13:00,32.4,23.4,30.16,SE,141,0.0,2.0,69,0.00,,,0.00,WUHU216DAVISVP2,2013-03-12 13:13:00,
2013-03-12 08:18:00,32.4,23.5,30.17,SE,141,0.0,2.0,69,0.00,,,0.00,WUHU216DAVISVP2,2013-03-12 13:18:00,
2013-03-12 08:23:00,32.5,23.1,30.17,SE,141,0.0,2.0,68,0.00,,,0.00,WUHU216DAVISVP2,2013-03-12 13:23:00,
2013-03-12 08:28:00,32.5,22.8,30.17,SE,141,0.0,0.0,67,0.00,,,0.00,WUHU216DAVISVP2,2013-03-12 13:28:00,
2013-03-12 08:33:00,32.5,22.8,30.18,SE,141,0.0,0.0,67,0.00,,,0.00,WUHU216DAVISVP2,2013-03-12 13:33:00,
2013-03-12 08:38:00,32.5,23.2,30.17,SE,141,0.0,0.0,68,0.00,,,0.00,WUHU216DAVISVP2,2013-03-12 13:38:00,
2013-03-12 08:43:00,32.4,23.0,30.18,SE,141,0.0,0.0,68,0.00,,,0.00,WUHU216DAVISVP2,2013-03-12 13:43:00,
2013-03-12 08:48:00,32.3,22.6,30.18,SE,141,0.0,0.0,67,0.00,,,0.00,WUHU216DAVISVP2,2013-03-12 13:48:00,
2013-03-12 08:53:00,32.5,22.5,30.18,SE,141,1.0,2.0,66,0.00,,,0.00,WUHU216DAVISVP2,2013-03-12 13:53:00,
2013-03-12 08:58:00,32.9,22.5,30.19,SE,141,1.0,3.0,65,0.00,,,0.00,WUHU216DAVISVP2,2013-03-12 13:58:00,
2013-03-12 09:03:00,33.0,22.6,30.19,SE,141,1.0,3.0,65,0.00,,,0.00,WUHU216DAVISVP2,2013-03-12 14:03:00,
2013-03-12 09:08:00,33.2,23.5,30.19,SE,141,2.0,3.0,67,0.00,,,0.00,WUHU216DAVISVP2,2013-03-12 14:08:00,
2013-03-12 09:13:00,33.3,23.3,30.19,SE,141,2.0,3.0,66,0.00,,,0.00,WUHU216DAVISVP2,2013-03-12 14:13:00,
2013-03-12 09:18:00,33.4,23.3,30.19,SE,129,3.0,5.0,66,0.00,,,0.00,WUHU216DAVISVP2,2013-03-12 14:18:00,
2013-03-12 09:23:00,33.8,24.0,30.19,ESE,118,3.0,5.0,67,0.00,,,0.00,WUHU216DAVISVP2,2013-03-12 14:23:00,
2013-03-12 09:28:00,34.4,23.6,30.19,ESE,110,7.0,8.0,64,0.00,,,0.00,WUHU216DAVISVP2,2013-03-12 14:28:00,
2013-03-12 09:34:00,35.2,23.9,30.19,ESE,109,5.0,8.0,63,0.00,,,0.00,WUHU216DAVISVP2,2013-03-12 14:34:00,
2013-03-12 09:39:00,35.7,22.8,30.19,ESE,112,5.0,8.0,59,0.00,,,0.00,WUHU216DAVISVP2,2013-03-12 14:39:00,
2013-03-12 09:44:00,36.0,22.7,30.20,ESE,121,3.0,8.0,58,0.00,,,0.00,WUHU216DAVISVP2,2013-03-12 14:44:00,
2013-03-12 09:49:00,36.3,22.1,30.20,SE,135,4.0,9.0,56,0.00,,,0.00,WUHU216DAVISVP2,2013-03-12 14:49:00,
2013-03-12 09:54:00,36.5,21.9,30.20,ESE,106,3.0,10.0,55,0.00,,,0.00,WUHU216DAVISVP2,2013-03-12 14:54:00,
2013-03-12 09:59:00,36.7,21.6,30.21,SE,124,3.0,10.0,54,0.00,,,0.00,WUHU216DAVISVP2,2013-03-12 14:59:00,
2013-03-12 10:04:00,36.8,21.2,30.21,SE,139,9.0,11.0,53,0.00,,,0.00,WUHU216DAVISVP2,2013-03-12 15:04:00,
2013-03-12 10:09:00,36.8,21.3,30.21,SSE,166,8.0,11.0,53,0.00,,,0.00,WUHU216DAVISVP2,2013-03-12 15:09:00,
2013-03-12 10:14:00,36.7,21.2,30.22,SSE,149,8.0,12.0,53,0.00,,,0.00,WUHU216DAVISVP2,2013-03-12 15:14:00,
2013-03-12 10:19:00,36.8,22.2,30.21,SE,127,5.0,12.0,55,0.00,,,0.00,WUHU216DAVISVP2,2013-03-12 15:19:00,
2013-03-12 10:23:00,37.0,21.9,30.22,SE,129,10.0,12.0,54,0.00,,,0.00,WUHU216DAVISVP2,2013-03-12 15:23:00,
2013-03-12 10:29:00,37.2,22.5,30.22,SE,127,8.0,12.0,55,0.00,,,0.00,WUHU216DAVISVP2,2013-03-12 15:29:00,
2013-03-12 10:34:00,37.6,21.5,30.22,South,170,6.0,11.0,52,0.00,,,0.00,WUHU216DAVISVP2,2013-03-12 15:34:00,
2013-03-12 10:39:00,37.8,21.7,30.22,ESE,117,7.0,11.0,52,0.00,,,0.00,WUHU216DAVISVP2,2013-03-12 15:39:00,
2013-03-12 10:44:00,38.1,22.4,30.22,ESE,123,5.0,11.0,53,0.00,,,0.00,WUHU216DAVISVP2,2013-03-12 15:44:00,
2013-03-12 10:48:00,38.1,22.0,30.22,SSE,148,9.0,11.0,52,0.00,,,0.00,WUHU216DAVISVP2,2013-03-12 15:48:00,
2013-03-12 10:53:00,38.1,22.0,30.23,South,185,6.0,11.0,52,0.00,,,0.00,WUHU216DAVISVP2,2013-03-12 15:53:00,
2013-03-12 10:58:00,38.0,22.3,30.23,SSE,163,10.0,11.0,53,0.00,,,0.00,WUHU216DAVISVP2,2013-03-12 15:58:00,
2013-03-12 11:03:00,37.7,22.1,30.23,SE,146,2.0,11.0,53,0.00,,,0.00,WUHU216DAVISVP2,2013-03-12 16:03:00,
2013-03-12 11:08:00,37.8,22.2,30.23,South,175,9.0,12.0,53,0.00,,,0.00,WUHU216DAVISVP2,2013-03-12 16:08:00,
2013-03-12 11:13:00,37.7,21.2,30.23,South,182,5.0,12.0,51,0.00,,,0.00,WUHU216DAVISVP2,2013-03-12 16:13:00,
2013-03-12 11:18:00,37.9,21.8,30.23,SE,140,8.0,12.0,52,0.00,,,0.00,WUHU216DAVISVP2,2013-03-12 16:18:00,
2013-03-12 11:23:00,38.1,22.5,30.23,SE,133,4.0,12.0,53,0.00,,,0.00,WUHU216DAVISVP2,2013-03-12 16:23:00,
2013-03-12 11:28:00,38.7,23.0,30.23,SSE,167,7.0,12.0,53,0.00,,,0.00,WUHU216DAVISVP2,2013-03-12 16:28:00,
2013-03-12 11:33:00,38.8,22.6,30.22,South,181,1.0,12.0,52,0.00,,,0.00,WUHU216DAVISVP2,2013-03-12 16:33:00,
2013-03-12 11:38:00,39.2,23.0,30.22,SSE,156,7.0,11.0,52,0.00,,,0.00,WUHU216DAVISVP2,2013-03-12 16:38:00,
2013-03-12 11:43:00,39.4,23.2,30.22,SE,126,3.0,11.0,52,0.00,,,0.00,WUHU216DAVISVP2,2013-03-12 16:43:00,
2013-03-12 11:48:00,39.4,22.7,30.23,SE,124,5.0,10.0,51,0.00,,,0.00,WUHU216DAVISVP2,2013-03-12 16:48:00,
2013-03-12 11:53:00,39.8,22.6,30.23,SSW,195,4.0,11.0,50,0.00,,,0.00,WUHU216DAVISVP2,2013-03-12 16:53:00,
2013-03-12 11:58:00,40.0,23.3,30.23,SE,135,4.0,11.0,51,0.00,,,0.00,WUHU216DAVISVP2,2013-03-12 16:58:00,
2013-03-12 12:03:00,40.1,22.4,30.23,SE,139,5.0,11.0,49,0.00,,,0.00,WUHU216DAVISVP2,2013-03-12 17:03:00,
2013-03-12 12:08:00,40.4,23.2,30.23,SE,139,9.0,11.0,50,0.00,,,0.00,WUHU216DAVISVP2,2013-03-12 17:08:00,
2013-03-12 12:13:00,40.7,22.4,30.23,SSW,197,5.0,13.0,48,0.00,,,0.00,WUHU216DAVISVP2,2013-03-12 17:13:00,
2013-03-12 12:18:00,40.9,22.7,30.22,ESE,121,6.0,13.0,48,0.00,,,0.00,WUHU216DAVISVP2,2013-03-12 17:18:00,
2013-03-12 12:23:00,41.2,22.4,30.22,SE,133,7.0,13.0,47,0.00,,,0.00,WUHU216DAVISVP2,2013-03-12 17:23:00,
2013-03-12 12:29:00,41.6,20.6,30.22,SSE,157,11.0,13.0,43,0.00,,,0.00,WUHU216DAVISVP2,2013-03-12 17:29:00,
2013-03-12 12:33:00,42.1,21.6,30.22,SSE,153,7.0,14.0,44,0.00,,,0.00,WUHU216DAVISVP2,2013-03-12 17:33:00,
2013-03-12 12:39:00,42.3,21.3,30.22,SE,126,8.0,14.0,43,0.00,,,0.00,WUHU216DAVISVP2,2013-03-12 17:39:00,
2013-03-12 12:44:00,42.0,21.0,30.22,SE,131,4.0,15.0,43,0.00,,,0.00,WUHU216DAVISVP2,2013-03-12 17:44:00,
2013-03-12 12:49:00,42.5,20.8,30.22,South,183,4.0,15.0,42,0.00,,,0.00,WUHU216DAVISVP2,2013-03-12 17:49:00,
2013-03-12 12:54:00,43.0,20.1,30.22,SE,139,10.0,17.0,40,0.00,,,0.00,WUHU216DAVISVP2,2013-03-12 17:54:00,
2013-03-12 12:59:00,43.0,21.3,30.22,SSE,160,12.0,17.0,42,0.00,,,0.00,WUHU216DAVISVP2,2013-03-12 17:59:00,
2013-03-12 13:04:00,43.2,20.3,30.22,South,175,12.0,17.0,40,0.00,,,0.00,WUHU216DAVISVP2,2013-03-12 18:04:00,
2013-03-12 13:09:00,43.0,20.1,30.22,SSE,152,2.0,17.0,40,0.00,,,0.00,WUHU216DAVISVP2,2013-03-12 18:09:00,
2013-03-12 13:13:00,43.5,20.0,30.21,SSE,160,12.0,16.0,39,0.00,,,0.00,WUHU216DAVISVP2,2013-03-12 18:13:00,
2013-03-12 13:19:00,43.5,20.0,30.22,South,176,5.0,16.0,39,0.00,,,0.00,WUHU216DAVISVP2,2013-03-12 18:19:00,
2013-03-12 13:24:00,43.5,20.6,30.21,SSE,151,11.0,14.0,40,0.00,,,0.00,WUHU216DAVISVP2,2013-03-12 18:24:00,
2013-03-12 13:29:00,43.5,19.9,30.21,SE,136,10.0,18.0,39,0.00,,,0.00,WUHU216DAVISVP2,2013-03-12 18:29:00,
2013-03-12 13:34:00,43.6,20.0,30.21,SSE,166,5.0,18.0,39,0.00,,,0.00,WUHU216DAVISVP2,2013-03-12 18:34:00,
2013-03-12 13:39:00,43.8,19.6,30.21,ESE,121,8.0,18.0,38,0.00,,,0.00,WUHU216DAVISVP2,2013-03-12 18:39:00,
2013-03-12 13:44:00,43.8,20.2,30.21,South,191,7.0,18.0,39,0.00,,,0.00,WUHU216DAVISVP2,2013-03-12 18:44:00,
2013-03-12 13:49:00,44.3,20.1,30.21,SSE,158,6.0,16.0,38,0.00,,,0.00,WUHU216DAVISVP2,2013-03-12 18:49:00,
2013-03-12 13:54:00,44.7,20.5,30.21,SSE,152,6.0,16.0,38,0.00,,,0.00,WUHU216DAVISVP2,2013-03-12 18:54:00,
2013-03-12 13:59:00,44.1,20.5,30.21,ESE,107,6.0,16.0,39,0.00,,,0.00,WUHU216DAVISVP2,2013-03-12 18:59:00,
2013-03-12 14:04:00,44.4,22.0,30.21,SE,140,17.0,19.0,41,0.00,,,0.00,WUHU216DAVISVP2,2013-03-12 19:04:00,
2013-03-12 14:09:00,44.4,21.4,30.20,ESE,121,14.0,21.0,40,0.00,,,0.00,WUHU216DAVISVP2,2013-03-12 19:09:00,
2013-03-12 14:14:00,44.7,21.7,30.20,East,91,5.0,21.0,40,0.00,,,0.00,WUHU216DAVISVP2,2013-03-12 19:14:00,
2013-03-12 14:19:00,45.0,21.3,30.20,SSE,161,9.0,21.0,39,0.00,,,0.00,WUHU216DAVISVP2,2013-03-12 19:19:00,
2013-03-12 14:24:00,45.0,21.9,30.20,SE,126,8.0,18.0,40,0.00,,,0.00,WUHU216DAVISVP2,2013-03-12 19:24:00,
2013-03-12 14:29:00,44.8,21.8,30.19,SE,142,12.0,18.0,40,0.00,,,0.00,WUHU216DAVISVP2,2013-03-12 19:29:00,
2013-03-12 14:34:00,45.2,22.7,30.19,SSE,162,6.0,18.0,41,0.00,,,0.00,WUHU216DAVISVP2,2013-03-12 19:34:00,
2013-03-12 14:39:00,45.2,22.1,30.19,SSE,150,7.0,18.0,40,0.00,,,0.00,WUHU216DAVISVP2,2013-03-12 19:39:00,
2013-03-12 14:44:00,45.7,23.1,30.19,SE,137,14.0,21.0,41,0.00,,,0.00,WUHU216DAVISVP2,2013-03-12 19:44:00,
2013-03-12 14:49:00,46.0,24.0,30.19,SE,135,13.0,21.0,42,0.00,,,0.00,WUHU216DAVISVP2,2013-03-12 19:49:00,
2013-03-12 14:54:00,45.8,22.1,30.19,SE,146,13.0,21.0,39,0.00,,,0.00,WUHU216DAVISVP2,2013-03-12 19:54:00,
2013-03-12 14:59:00,45.7,23.8,30.19,SE,127,8.0,21.0,42,0.00,,,0.00,WUHU216DAVISVP2,2013-03-12 19:59:00,
2013-03-12 15:04:00,45.9,24.5,30.18,ESE,108,16.0,18.0,43,0.00,,,0.00,WUHU216DAVISVP2,2013-03-12 20:04:00,
2013-03-12 15:09:00,46.4,25.0,30.18,ESE,123,11.0,18.0,43,0.00,,,0.00,WUHU216DAVISVP2,2013-03-12 20:09:00,
2013-03-12 15:14:00,46.6,25.2,30.19,SE,146,7.0,17.0,43,0.00,,,0.00,WUHU216DAVISVP2,2013-03-12 20:14:00,
2013-03-12 15:19:00,45.9,23.4,30.19,SE,136,14.0,17.0,41,0.00,,,0.00,WUHU216DAVISVP2,2013-03-12 20:19:00,
2013-03-12 15:24:00,46.0,24.0,30.19,ESE,113,21.0,22.0,42,0.00,,,0.00,WUHU216DAVISVP2,2013-03-12 20:24:00,
2013-03-12 15:29:00,46.6,25.2,30.19,East,90,10.0,25.0,43,0.00,,,0.00,WUHU216DAVISVP2,2013-03-12 20:29:00,
2013-03-12 15:34:00,47.5,26.5,30.18,ESE,102,16.0,25.0,44,0.00,,,0.00,WUHU216DAVISVP2,2013-03-12 20:34:00,
2013-03-12 15:39:00,47.3,24.6,30.19,East,91,15.0,25.0,41,0.00,,,0.00,WUHU216DAVISVP2,2013-03-12 20:39:00,
2013-03-12 15:44:00,46.3,24.3,30.19,SSE,150,2.0,23.0,42,0.00,,,0.00,WUHU216DAVISVP2,2013-03-12 20:44:00,
2013-03-12 15:49:00,46.7,25.8,30.19,SSE,158,19.0,23.0,44,0.00,,,0.00,WUHU216DAVISVP2,2013-03-12 20:49:00,
2013-03-12 15:54:00,47.4,25.9,30.19,SE,131,8.0,23.0,43,0.00,,,0.00,WUHU216DAVISVP2,2013-03-12 20:54:00,
2013-03-12 15:59:00,46.7,25.8,30.19,SE,129,9.0,22.0,44,0.00,,,0.00,WUHU216DAVISVP2,2013-03-12 20:59:00,
2013-03-12 16:04:00,46.5,25.6,30.19,SE,133,14.0,22.0,44,0.00,,,0.00,WUHU216DAVISVP2,2013-03-12 21:04:00,
2013-03-12 16:09:00,47.0,26.1,30.18,SE,135,15.0,22.0,44,0.00,,,0.00,WUHU216DAVISVP2,2013-03-12 21:09:00,
2013-03-12 16:14:00,47.7,26.8,30.19,SE,137,11.0,21.0,44,0.00,,,0.00,WUHU216DAVISVP2,2013-03-12 21:14:00,
2013-03-12 16:19:00,47.1,26.7,30.18,ESE,118,8.0,22.0,45,0.00,,,0.00,WUHU216DAVISVP2,2013-03-12 21:19:00,
2013-03-12 16:24:00,47.2,26.8,30.19,ESE,121,22.0,24.0,45,0.00,,,0.00,WUHU216DAVISVP2,2013-03-12 21:24:00,
2013-03-12 16:29:00,47.6,27.1,30.19,SE,144,14.0,24.0,45,0.00,,,0.00,WUHU216DAVISVP2,2013-03-12 21:29:00,
2013-03-12 16:34:00,47.3,26.9,30.19,SE,134,10.0,24.0,45,0.00,,,0.00,WUHU216DAVISVP2,2013-03-12 21:34:00,
2013-03-12 16:39:00,46.7,27.5,30.19,SE,136,9.0,24.0,47,0.00,,,0.00,WUHU216DAVISVP2,2013-03-12 21:39:00,
2013-03-12 16:44:00,46.7,28.0,30.19,SE,130,7.0,23.0,48,0.00,,,0.00,WUHU216DAVISVP2,2013-03-12 21:44:00,
2013-03-12 16:49:00,47.0,27.7,30.19,ESE,116,13.0,23.0,47,0.00,,,0.00,WUHU216DAVISVP2,2013-03-12 21:49:00,
2013-03-12 16:54:00,46.9,27.6,30.19,SE,138,10.0,21.0,47,0.00,,,0.00,WUHU216DAVISVP2,2013-03-12 21:54:00,
2013-03-12 16:59:00,46.7,28.0,30.19,SSE,148,8.0,21.0,48,0.00,,,0.00,WUHU216DAVISVP2,2013-03-12 21:59:00,
2013-03-12 17:04:00,47.5,28.7,30.19,SE,133,8.0,19.0,48,0.00,,,0.00,WUHU216DAVISVP2,2013-03-12 22:04:00,
2013-03-12 17:09:00,48.1,28.8,30.19,SE,129,9.0,17.0,47,0.00,,,0.00,WUHU216DAVISVP2,2013-03-12 22:09:00,
2013-03-12 17:14:00,48.2,28.8,30.19,SE,131,11.0,17.0,47,0.00,,,0.00,WUHU216DAVISVP2,2013-03-12 22:14:00,
2013-03-12 17:19:00,47.7,28.4,30.19,SSE,158,14.0,23.0,47,0.00,,,0.00,WUHU216DAVISVP2,2013-03-12 22:19:00,
2013-03-12 17:24:00,47.6,28.3,30.19,SSE,150,8.0,23.0,47,0.00,,,0.00,WUHU216DAVISVP2,2013-03-12 22:24:00,
2013-03-12 17:29:00,48.1,29.3,30.19,SE,129,8.0,23.0,48,0.00,,,0.00,WUHU216DAVISVP2,2013-03-12 22:29:00,
2013-03-12 17:34:00,48.3,28.9,30.19,SE,134,11.0,23.0,47,0.00,,,0.00,WUHU216DAVISVP2,2013-03-12 22:34:00,
2013-03-12 17:39:00,48.4,29.0,30.19,SE,137,10.0,23.0,47,0.00,,,0.00,WUHU216DAVISVP2,2013-03-12 22:39:00,
2013-03-12 17:44:00,48.8,29.9,30.19,ESE,121,10.0,23.0,48,0.00,,,0.00,WUHU216DAVISVP2,2013-03-12 22:44:00,
2013-03-12 17:49:00,49.3,29.8,30.18,ESE,116,14.0,23.0,47,0.00,,,0.00,WUHU216DAVISVP2,2013-03-12 22:49:00,
2013-03-12 17:54:00,49.2,29.8,30.19,SE,125,10.0,23.0,47,0.00,,,0.00,WUHU216DAVISVP2,2013-03-12 22:54:00,
2013-03-12 17:59:00,49.3,29.8,30.19,SE,132,14.0,25.0,47,0.00,,,0.00,WUHU216DAVISVP2,2013-03-12 22:59:00,
2013-03-12 18:04:00,49.1,29.6,30.19,SE,124,13.0,26.0,47,0.00,,,0.00,WUHU216DAVISVP2,2013-03-12 23:04:00,
2013-03-12 18:09:00,49.1,30.2,30.19,SE,146,11.0,26.0,48,0.00,,,0.00,WUHU216DAVISVP2,2013-03-12 23:09:00,
2013-03-12 18:14:00,49.5,30.5,30.19,SE,129,9.0,26.0,48,0.00,,,0.00,WUHU216DAVISVP2,2013-03-12 23:14:00,
2013-03-12 18:19:00,49.6,30.1,30.18,ESE,110,8.0,21.0,47,0.00,,,0.00,WUHU216DAVISVP2,2013-03-12 23:19:00,
2013-03-12 18:24:00,49.4,29.9,30.19,ESE,112,8.0,27.0,47,0.00,,,0.00,WUHU216DAVISVP2,2013-03-12 23:24:00,
2013-03-12 18:29:00,49.3,29.3,30.19,SSE,152,14.0,27.0,46,0.00,,,0.00,WUHU216DAVISVP2,2013-03-12 23:29:00,
2013-03-12 18:34:00,48.9,29.0,30.19,SE,136,13.0,27.0,46,0.00,,,0.00,WUHU216DAVISVP2,2013-03-12 23:34:00,
2013-03-12 18:39:00,48.6,29.2,30.19,SE,139,5.0,27.0,47,0.00,,,0.00,WUHU216DAVISVP2,2013-03-12 23:39:00,
2013-03-12 18:44:00,48.3,28.9,30.19,SE,130,11.0,24.0,47,0.00,,,0.00,WUHU216DAVISVP2,2013-03-12 23:44:00,
2013-03-12 18:49:00,47.8,28.5,30.19,SE,131,13.0,23.0,47,0.00,,,0.00,WUHU216DAVISVP2,2013-03-12 23:49:00,
2013-03-12 18:54:00,47.3,28.5,30.19,SE,142,7.0,23.0,48,0.00,,,0.00,WUHU216DAVISVP2,2013-03-12 23:54:00,
2013-03-12 18:59:00,47.0,28.2,30.20,SSE,147,7.0,23.0,48,0.00,,,0.00,WUHU216DAVISVP2,2013-03-12 23:59:00,
2013-03-12 19:04:00,46.7,28.5,30.20,SE,141,7.0,19.0,49,0.00,,,0.00,WUHU216DAVISVP2,2013-03-13 00:04:00,
2013-03-12 19:09:00,46.6,28.9,30.20,SE,134,8.0,17.0,50,0.00,,,0.00,WUHU216DAVISVP2,2013-03-13 00:09:00,
2013-03-12 19:14:00,46.4,27.7,30.20,SE,139,5.0,17.0,48,0.00,,,0.00,WUHU216DAVISVP2,2013-03-13 00:14:00,
2013-03-12 19:19:00,46.1,27.4,30.21,SSE,150,4.0,15.0,48,0.00,,,0.00,WUHU216DAVISVP2,2013-03-13 00:19:00,
2013-03-12 19:24:00,45.8,26.6,30.21,SE,128,8.0,23.0,47,0.00,,,0.00,WUHU216DAVISVP2,2013-03-13 00:24:00,
2013-03-12 19:29:00,45.5,26.4,30.21,SE,143,8.0,23.0,47,0.00,,,0.00,WUHU216DAVISVP2,2013-03-13 00:29:00,
2013-03-12 19:34:00,45.2,26.1,30.22,SE,131,3.0,23.0,47,0.00,,,0.00,WUHU216DAVISVP2,2013-03-13 00:34:00,
2013-03-12 19:39:00,44.9,26.8,30.22,SE,146,6.0,23.0,49,0.00,,,0.00,WUHU216DAVISVP2,2013-03-13 00:39:00,
2013-03-12 19:44:00,44.4,26.4,30.22,SE,131,11.0,16.0,49,0.00,,,0.00,WUHU216DAVISVP2,2013-03-13 00:44:00,
2013-03-12 19:49:00,44.4,25.3,30.22,SE,138,9.0,19.0,47,0.00,,,0.00,WUHU216DAVISVP2,2013-03-13 00:49:00,
2013-03-12 19:54:00,44.5,24.9,30.23,SSE,150,15.0,19.0,46,0.00,,,0.00,WUHU216DAVISVP2,2013-03-13 00:54:00,
2013-03-12 19:59:00,44.3,24.7,30.23,SSE,156,8.0,19.0,46,0.00,,,0.00,WUHU216DAVISVP2,2013-03-13 00:59:00,
2013-03-12 20:05:00,44.1,24.5,30.23,SE,143,17.0,19.0,46,0.00,,,0.00,WUHU216DAVISVP2,2013-03-13 01:05:00,
2013-03-12 20:10:00,43.9,24.8,30.23,ESE,123,12.0,19.0,47,0.00,,,0.00,WUHU216DAVISVP2,2013-03-13 01:10:00,
2013-03-12 20:15:00,43.5,24.5,30.24,SE,137,11.0,18.0,47,0.00,,,0.00,WUHU216DAVISVP2,2013-03-13 01:15:00,
2013-03-12 20:20:00,43.2,24.2,30.24,SSE,147,13.0,18.0,47,0.00,,,0.00,WUHU216DAVISVP2,2013-03-13 01:20:00,
2013-03-12 20:25:00,42.9,24.4,30.25,SSE,159,8.0,18.0,48,0.00,,,0.00,WUHU216DAVISVP2,2013-03-13 01:25:00,
2013-03-12 20:30:00,42.6,23.2,30.25,SE,134,10.0,18.0,46,0.00,,,0.00,WUHU216DAVISVP2,2013-03-13 01:30:00,
2013-03-12 20:35:00,42.3,22.9,30.25,SSE,158,8.0,18.0,46,0.00,,,0.00,WUHU216DAVISVP2,2013-03-13 01:35:00,
2013-03-12 20:40:00,42.1,22.7,30.25,SSE,151,8.0,17.0,46,0.00,,,0.00,WUHU216DAVISVP2,2013-03-13 01:40:00,
2013-03-12 20:45:00,41.7,21.8,30.25,SSE,163,10.0,17.0,45,0.00,,,0.00,WUHU216DAVISVP2,2013-03-13 01:45:00,
2013-03-12 20:50:00,41.5,21.6,30.25,SE,143,5.0,17.0,45,0.00,,,0.00,WUHU216DAVISVP2,2013-03-13 01:50:00,
2013-03-12 20:55:00,41.3,21.4,30.25,SSE,154,10.0,17.0,45,0.00,,,0.00,WUHU216DAVISVP2,2013-03-13 01:55:00,
2013-03-12 21:00:00,41.1,21.2,30.26,South,180,7.0,17.0,45,0.00,,,0.00,WUHU216DAVISVP2,2013-03-13 02:00:00,
2013-03-12 21:05:00,40.7,21.4,30.26,SE,140,8.0,17.0,46,0.00,,,0.00,WUHU216DAVISVP2,2013-03-13 02:05:00,
2013-03-12 21:10:00,40.4,21.6,30.26,SSE,160,4.0,14.0,47,0.00,,,0.00,WUHU216DAVISVP2,2013-03-13 02:10:00,
2013-03-12 21:15:00,40.1,21.3,30.27,SSE,159,2.0,15.0,47,0.00,,,0.00,WUHU216DAVISVP2,2013-03-13 02:15:00,
2013-03-12 21:20:00,39.9,21.7,30.27,SSE,148,5.0,15.0,48,0.00,,,0.00,WUHU216DAVISVP2,2013-03-13 02:20:00,
2013-03-12 21:25:00,39.7,22.0,30.27,SSE,148,7.0,15.0,49,0.00,,,0.00,WUHU216DAVISVP2,2013-03-13 02:25:00,
2013-03-12 21:30:00,39.5,21.8,30.28,South,170,2.0,15.0,49,0.00,,,0.00,WUHU216DAVISVP2,2013-03-13 02:30:00,
2013-03-12 21:35:00,39.2,22.0,30.28,SSE,167,2.0,14.0,50,0.00,,,0.00,WUHU216DAVISVP2,2013-03-13 02:35:00,
2013-03-12 21:40:00,38.9,21.8,30.28,SSE,150,5.0,14.0,50,0.00,,,0.00,WUHU216DAVISVP2,2013-03-13 02:40:00,
2013-03-12 21:45:00,38.7,22.6,30.28,SSE,152,3.0,14.0,52,0.00,,,0.00,WUHU216DAVISVP2,2013-03-13 02:45:00,
2013-03-12 21:50:00,38.5,22.8,30.29,South,190,3.0,14.0,53,0.00,,,0.00,WUHU216DAVISVP2,2013-03-13 02:50:00,
2013-03-12 21:55:00,38.4,23.2,30.29,South,170,5.0,17.0,54,0.00,,,0.00,WUHU216DAVISVP2,2013-03-13 02:55:00,
2013-03-12 22:00:00,38.2,23.5,30.29,SSE,167,3.0,17.0,55,0.00,,,0.00,WUHU216DAVISVP2,2013-03-13 03:00:00,
2013-03-12 22:05:00,38.0,23.7,30.29,SSE,166,12.0,17.0,56,0.00,,,0.00,WUHU216DAVISVP2,2013-03-13 03:05:00,
2013-03-12 22:10:00,37.8,23.1,30.30,SE,143,10.0,17.0,55,0.00,,,0.00,WUHU216DAVISVP2,2013-03-13 03:10:00,
2013-03-12 22:15:00,37.6,23.3,30.30,SE,146,7.0,16.0,56,0.00,,,0.00,WUHU216DAVISVP2,2013-03-13 03:15:00,
2013-03-12 22:20:00,37.2,23.4,30.30,SSE,155,5.0,16.0,57,0.00,,,0.00,WUHU216DAVISVP2,2013-03-13 03:20:00,
2013-03-12 22:25:00,36.9,23.1,30.30,SE,133,5.0,16.0,57,0.00,,,0.00,WUHU216DAVISVP2,2013-03-13 03:25:00,
2013-03-12 22:30:00,36.7,23.4,30.30,SSE,167,3.0,13.0,58,0.00,,,0.00,WUHU216DAVISVP2,2013-03-13 03:30:00,
2013-03-12 22:35:00,36.5,23.6,30.30,SE,146,4.0,11.0,59,0.00,,,0.00,WUHU216DAVISVP2,2013-03-13 03:35:00,
2013-03-12 22:40:00,36.3,23.8,30.30,SSE,168,5.0,11.0,60,0.00,,,0.00,WUHU216DAVISVP2,2013-03-13 03:40:00,
2013-03-12 22:45:00,36.0,23.6,30.31,SSE,155,6.0,11.0,60,0.00,,,0.00,WUHU216DAVISVP2,2013-03-13 03:45:00,
2013-03-12 22:50:00,35.7,23.7,30.31,South,186,5.0,11.0,61,0.00,,,0.00,WUHU216DAVISVP2,2013-03-13 03:50:00,
2013-03-12 22:55:00,35.5,23.4,30.31,SSE,152,6.0,11.0,61,0.00,,,0.00,WUHU216DAVISVP2,2013-03-13 03:55:00,
2013-03-12 23:00:00,35.3,23.6,30.31,SE,140,5.0,9.0,62,0.00,,,0.00,WUHU216DAVISVP2,2013-03-13 04:00:00,
2013-03-12 23:05:00,35.1,23.8,30.31,SSE,150,2.0,8.0,63,0.00,,,0.00,WUHU216DAVISVP2,2013-03-13 04:05:00,
2013-03-12 23:10:00,34.9,24.0,30.31,SSE,151,2.0,8.0,64,0.00,,,0.00,WUHU216DAVISVP2,2013-03-13 04:10:00,
2013-03-12 23:15:00,34.7,23.8,30.31,SSE,151,3.0,8.0,64,0.00,,,0.00,WUHU216DAVISVP2,2013-03-13 04:15:00,
2013-03-12 23:20:00,34.4,23.6,30.32,SSE,150,5.0,8.0,64,0.00,,,0.00,WUHU216DAVISVP2,2013-03-13 04:20:00,
2013-03-12 23:25:00,34.2,23.4,30.32,SSE,150,3.0,8.0,64,0.00,,,0.00,WUHU216DAVISVP2,2013-03-13 04:25:00,
2013-03-12 23:30:00,34.0,23.5,30.32,SSE,150,2.0,8.0,65,0.00,,,0.00,WUHU216DAVISVP2,2013-03-13 04:30:00,
2013-03-12 23:35:00,33.8,23.3,30.32,SSE,150,2.0,6.0,65,0.00,,,0.00,WUHU216DAVISVP2,2013-03-13 04:35:00,
2013-03-12 23:40:00,33.7,23.6,30.32,SSE,150,1.0,5.0,66,0.00,,,0.00,WUHU216DAVISVP2,2013-03-13 04:40:00,
2013-03-12 23:45:00,33.6,23.5,30.32,SSE,150,1.0,5.0,66,0.00,,,0.00,WUHU216DAVISVP2,2013-03-13 04:45:00,
2013-03-12 23:50:00,33.4,23.3,30.32,SSE,150,1.0,5.0,66,0.00,,,0.00,WUHU216DAVISVP2,2013-03-13 04:50:00,
2013-03-12 23:55:00,33.4,23.3,30.32,SSE,150,2.0,6.0,66,0.00,,,0.00,WUHU216DAVISVP2,2013-03-13 04:55:00,